Flag for Australia Weather past 2 weeks in Cairns, Queensland, Australia

Now
73 °F

Passing clouds.


Feels Like: 73 °F
Forecast: 73 / 80 °F
Wind: 10 mph from South

Location: Cairns Airport

Current Time: May 30, 2015 at 2:52:02 AM

Latest Report: May 30, 2015 at 2:30 AM


Visibility: N/A

Pressure: 30.04 "Hg

Humidity: 83%

Dew point: 68 °F

Location of CairnsLocation

Historic Weather in Cairns — Graph

°F

Cairns temperature yesterday

Maximum temperature yesterday: 84 °F (at 2:30 PM)
Minimum temperature yesterday: 72 °F (at 1:30 AM)
Average temperature yesterday: 76 °F

Past Weeks' High & Low Weather Summary

 TemperatureHumidityPressure
High86 °F (May 22, 12:30 PM)100% (May 22, 1:00 AM)30.18 "Hg (May 22, 1:00 AM)
Low63 °F (May 24, 3:30 AM)36% (May 23, 9:30 AM)29.95 "Hg (May 19, 2:00 PM)
Average75 °F74%30.05 "Hg
* Reported May 15 2:00 AM — May 30 2:00 AM, Cairns, Weather by CustomWeather, © 2015

Note: Actual official high and low records may vary slightly from our data, if they occured in-between our weather recording intervals... More about our weather records

Advertising

Cairns weather history for previous 24 hours

 ConditionsComfort  
Time TempWeatherWind HumidityBarometerVisibility
2:00 AM
Sat, May 30
73 °FPassing clouds.14 mph83%30.04 "HgN/A
1:30 AM73 °FPassing clouds.12 mph83%30.07 "HgN/A
1:00 AM73 °FPassing clouds.14 mph83%30.07 "HgN/A
12:30 AM73 °FSprinkles. Passing clouds.13 mph83%30.07 "Hg6 mi
12:00 AM72 °FScattered showers. Passing clouds.13 mph88%30.07 "HgN/A
11:30 PM
Fri, May 29
72 °FPassing clouds.13 mph88%30.09 "HgN/A
11:00 PM72 °FScattered showers. Passing clouds.13 mph88%30.09 "HgN/A
10:30 PM72 °FPassing clouds.12 mph94%30.07 "HgN/A
10:00 PM75 °FSprinkles. Passing clouds.13 mph78%30.07 "Hg5 mi
9:30 PM75 °FPassing clouds.12 mph74%30.07 "HgN/A
9:00 PM75 °FScattered showers. Passing clouds.12 mph74%30.07 "HgN/A
8:30 PM75 °FPassing clouds.10 mph78%30.07 "HgN/A
8:00 PM75 °FPassing clouds.10 mph78%30.07 "HgN/A
7:30 PM75 °FScattered showers. Passing clouds.13 mph74%30.07 "HgN/A
7:00 PM75 °FPassing clouds.10 mph74%30.04 "HgN/A
6:30 PM75 °FPassing clouds.10 mph78%30.04 "HgN/A
6:00 PM77 °FPassing clouds.14 mph69%30.04 "HgN/A
5:30 PM77 °FBroken clouds.17 mph69%30.04 "HgN/A
5:00 PM77 °FPartly sunny.17 mph69%30.01 "HgN/A
4:30 PM79 °FPartly sunny.18 mph65%30.04 "HgN/A
3:30 PM81 °FPartly sunny.18 mph62%30.01 "HgN/A
3:00 PM81 °FPartly sunny.17 mph62%30.01 "HgN/A
2:30 PM84 °FPartly sunny.18 mph55%30.01 "HgN/A
2:00 PM82 °FPartly sunny.20 mph55%30.01 "HgN/A
1:30 PM82 °FPartly sunny.20 mph62%30.01 "HgN/A
1:00 PM82 °FPartly sunny.21 mph58%30.04 "HgN/A
12:30 PM82 °FPartly sunny.22 mph55%30.04 "HgN/A
12:00 PM82 °FPartly sunny.18 mph55%30.07 "HgN/A
11:30 AM82 °FPartly sunny.21 mph55%30.07 "HgN/A
11:00 AM81 °FBroken clouds.21 mph62%30.09 "HgN/A
10:30 AM81 °FBroken clouds.18 mph66%30.09 "HgN/A
10:00 AM81 °FPartly sunny.20 mph62%30.09 "HgN/A
9:30 AM77 °FBroken clouds.12 mph79%30.09 "HgN/A
9:00 AM77 °FScattered clouds.13 mph79%30.09 "HgN/A
8:00 AM75 °FScattered showers. Passing clouds.10 mph83%30.07 "HgN/A
7:30 AM73 °FScattered showers. Broken clouds.12 mph89%30.07 "HgN/A
7:00 AM73 °FScattered showers. Broken clouds.10 mph89%30.07 "HgN/A
6:30 AM73 °FPartly cloudy.10 mph83%30.07 "HgN/A
6:00 AM73 °FPassing clouds.10 mph83%30.04 "HgN/A
5:30 AM73 °FPartly cloudy.10 mph83%30.04 "HgN/A
5:00 AM73 °FPassing clouds.12 mph83%30.04 "HgN/A
4:30 AM73 °FSprinkles. Partly cloudy.13 mph83%30.04 "HgN/A
4:00 AM73 °FScattered showers. Partly cloudy.15 mph83%30.04 "HgN/A
3:30 AM73 °FPassing clouds.10 mph83%30.04 "HgN/A
3:00 AM73 °FPartly cloudy.10 mph83%30.04 "HgN/A
2:30 AM73 °FPartly cloudy.10 mph83%30.04 "HgN/A
2:00 AM73 °FPassing clouds.10 mph83%30.04 "HgN/A
Weather by CustomWeather, © 2015

See weather overviewHow to use our weather pages